ROMMA est une association bénévole à but non lucratif. Votre soutien est indispensable : ADHERER à ROMMA ou FAIRE un DON

Saint-Léger-les-Mélèzes - (05, Hautes-Alpes)

Champsaur (1245 m)   Longitude: 6° 11' 42" E    Latitude: 44° 38' 38" N Station partenaire n°51
 

Détail journalier du     <<     >>

Température Humidité Vent Dir Rafale Dir. rafale Ensol.
Heure (°C) (%) (km/h) (km/h) (min)
01:00 2.2833SSO6SSO0
02:00 2.2813S8S0
03:00 1.9813S8S0
04:00 2.4823S6S0
05:00 2.6792S6S0
06:00 2.3832SO6SO0
07:00 1.8843S6S0
08:00 1.9833S6S0
09:00 1.9853SSO8S0
10:00 3.1761SO5S0
11:00 5.27005SSO0
12:00 7.36305ONO20
13:00 9.6541ONO5ONO60
14:00 11.2521O6NO60
15:00 13.2431O8SO60
16:00 12.84606NO50
17:00 11.4532SSO10S20
18:00 9.2583SSO10S0
19:00 6.8643S10S0
20:00 5.4692S6S0
21:00 4.4733SO6SO0
22:00 3.7763S6S0
23:00 3.5773SSO6SSO0
minuit 3.2775SSO8SSO0

Graphique du 24-02-2019

 

Serveur OMMA